ITASAT

Last updated on Fri Dec 19 2025 00:03:11 GMT+0000 (Coordinated Universal Time)

1 43786U 18099AE 25352.63794032 .00006284 00000+0 32857-3 0 9993 2 43786 97.4319 42.8267 0011929 260.6915 99.2969 15.16155738385522
UTC large
Height (km)
Speed (km/s)
/
Latitude / Longitude
Inclination (degrees)
Orbital Period (minutes)
Azimuth
Elevation
Range (km)
Doppler Factor

Next 0 passes for location: London (51.5072 / 0.1276)

Sorry there are no passes over London.